Flag for Germany Weather past 2 weeks in Marburg, Hesse, Germany

Now
66 °F

Passing clouds.


Feels Like: 66 °F
Forecast: 52 / 85 °F
Wind: 7 mph from Southwest

Location: Giessen

Current Time: Jul 6, 2015 at 11:13:28 AM

Latest Report: Jul 6, 2015 at 10:00 AM


Visibility: 17 mi

Pressure: 30.19 "Hg

Humidity: 67%

Dew point: 55 °F

Location of MarburgLocation

Historic Weather in Marburg — Graph

°F

Marburg temperature yesterday

Maximum temperature yesterday: 99 °F (at 4:00 PM)
Minimum temperature yesterday: 72 °F (at 11:00 PM)
Average temperature yesterday: 83 °F

Past Weeks' High & Low Weather Summary

 TemperatureHumidityPressure
High99 °F (Jul 5, 4:00 PM)97% (Jun 22, 11:00 PM)30.24 "Hg (Jun 22, 11:00 PM)
Low46 °F (Jun 25, 6:00 AM)19% (Jul 5, 4:00 PM)29.69 "Hg (Jun 23, 1:00 AM)
Average69 °F64%30.08 "Hg
* Reported Jun 21 10:00 AM — Jul 6 10:00 AM, Marburg, Weather by CustomWeather, © 2015

Note: Actual official high and low records may vary slightly from our data, if they occured in-between our weather recording intervals... More about our weather records

Advertising

Marburg weather history for previous 24 hours

 ConditionsComfort  
Time TempWeatherWind HumidityBarometerVisibility
10:00 AM
Mon, Jul 6
66 °FPassing clouds.7 mph67%30.19 "Hg17 mi
9:00 AM65 °FScattered clouds.5 mph78%30.19 "Hg17 mi
8:00 AM63 °FSunny.5 mph88%30.17 "Hg6 mi
7:00 AM60 °FFog.3 mph95%30.15 "Hg2 mi
6:00 AM59 °FFog.3 mph96%30.15 "Hg3 mi
5:00 AM60 °FClear.2 mph95%30.14 "Hg7 mi
4:00 AM60 °FClear.3 mph95%30.12 "Hg6 mi
3:00 AM63 °FPassing clouds.3 mph93%30.12 "Hg8 mi
2:00 AM65 °FOvercast.3 mph85%30.09 "Hg13 mi
1:00 AM67 °FLight rain. Low clouds.2 mph91%30.05 "Hg6 mi
12:00 AM68 °FLow clouds.5 mph90%29.98 "Hg6 mi
11:00 PM
Sun, Jul 5
72 °FOvercast.2 mph78%29.95 "Hg10 mi
10:00 PM75 °FOvercast.5 mph74%29.93 "Hg11 mi
9:00 PM79 °FPassing clouds.5 mph64%29.88 "Hg17 mi
8:00 PM84 °FOvercast.10 mph52%29.85 "Hg17 mi
7:00 PM93 °FSunny.2 mph39%29.80 "Hg16 mi
6:00 PM91 °FOvercast.1 mph42%29.82 "Hg17 mi
5:00 PM82 °FOvercast.8 mph54%29.88 "Hg15 mi
4:00 PM99 °FOvercast.7 mph19%29.83 "Hg18 mi
3:00 PM96 °FOvercast.7 mph26%29.88 "Hg19 mi
2:00 PM98 °FOvercast.6 mph27%29.91 "Hg19 mi
1:00 PM97 °FSunny.5 mph30%29.93 "Hg19 mi
12:00 PM94 °FSunny.3 mph36%29.95 "Hg12 mi
11:00 AM89 °FPassing clouds.2 mph50%29.98 "Hg13 mi
Weather by CustomWeather, © 2015

See weather overviewHow to use our weather pages